Cairo, Egypt

10:43 AM EET on January 24, 2018 (GMT +0200)
Cairo International Airport

Weather History for HECA - March, 2013

Change the Weather History Date:

Thursday, March 7, 2013

  Actual Average Record
Temperature  
Mean Temperature 60 °F -  
Max Temperature 72 °F 74 °F 93 °F (2006)
Min Temperature 48 °F 54 °F 48 °F (2013)
Degree Days  
Heating Degree Days 5    
Growing Degree Days 10 (Base 50)    
Moisture  
Dew Point 36 °F    
Average Humidity 44    
Maximum Humidity 71    
Minimum Humidity 15    
Precipitation  
Precipitation 0.00 in 0.00 in - ()
Sea Level Pressure  
Sea Level Pressure 30.05 in    
Wind  
Wind Speed 14 mph ()    
Max Wind Speed 22 mph    
Max Gust Speed -    
Visibility 4.9 miles    
Events      
Averages and records for this station are not official NWS values.
T = Trace of Precipitation, MM = Missing Value Source: Averaged Metar Reports

Daily Weather History Graph

Daily Weather History Graph

Search for Another Location

Airport or City:

Trip Planner

Search our weather history database for the weather conditions in past years. The results will help you decide how hot, cold, wet, or windy it might be!

Date:

Astronomy

Mar. 07, 2013 Rise Set
Actual Time 6:13 AM EET 5:57 PM EET
Civil Twilight 5:49 AM EET 6:21 PM EET
Nautical Twilight 5:22 AM EET 6:49 PM EET
Astronomical Twilight 4:54 AM EET 7:17 PM EET
Moon 2:40 AM EET (3/7) 1:38 PM EET (3/7)
Length of Visible Light 12h 31m
Length of Day
11h 43m
Waning Crescent, 23% of the Moon is Illuminated
Mar 7
Waning Crescent
Mar 11
New
Mar 19
First Quarter
Mar 27
Full
Apr 3
Last Quarter

Hourly Weather History & Observations

Time (EET) Temp. Dew Point Humidity Pressure Visibility Wind Dir Wind Speed Gust Speed Precip Events Conditions
12:00 AM 53.6 °F 39.2 °F 58% 30.15 in - NE 17.3 mph - N/A   Clear
12:30 AM 53.6 °F 39.2 °F 58% 30.15 in - NE 16.1 mph - N/A   Clear
1:00 AM 51.8 °F 37.4 °F 58% 30.15 in - NE 16.1 mph - N/A   Clear
1:30 AM 51.8 °F 39.2 °F 62% 30.12 in - ENE 17.3 mph - N/A   Clear
2:00 AM 52 °F 40 °F 52% 30.15 in 6 mi ENE 19.6 mph - -  
2:00 AM 51.8 °F 39.2 °F 62% 30.12 in - ENE 19.6 mph - N/A   Clear
2:30 AM 51.8 °F 39.2 °F 62% 30.12 in - ENE 18.4 mph - N/A   Clear
3:00 AM 51.8 °F 39.2 °F 62% 30.09 in - ENE 18.4 mph - N/A   Clear
3:30 AM 51.8 °F 39.2 °F 62% 30.09 in - ENE 18.4 mph - N/A   Clear
4:00 AM 50.0 °F 39.2 °F 66% 30.09 in - ENE 16.1 mph - N/A   Clear
4:30 AM 50.0 °F 39.2 °F 66% 30.12 in - ENE 12.7 mph - N/A   Clear
5:00 AM 50.0 °F 39.2 °F 66% 30.12 in - ENE 10.4 mph - N/A   Clear
5:30 AM 50.0 °F 39.2 °F 66% 30.12 in - ENE 13.8 mph - N/A   Clear
6:00 AM 48.2 °F 39.2 °F 71% 30.12 in 3.7 mi ENE 9.2 mph - N/A   Unknown
6:30 AM 48.2 °F 39.2 °F 71% 30.12 in 3.7 mi ENE 10.4 mph - N/A   Unknown
7:00 AM 50.0 °F 39.2 °F 66% 30.09 in 3.7 mi ENE 16.1 mph - N/A   Unknown
7:30 AM 51.8 °F 39.2 °F 62% 30.12 in 3.7 mi ENE 15.0 mph - N/A   Unknown
8:00 AM 53 °F 38 °F 47% 30.15 in 6 mi ENE 13.8 mph - -  
8:00 AM 53.6 °F 39.2 °F 58% 30.12 in - ENE 13.8 mph - N/A   Clear
8:30 AM 55.4 °F 37.4 °F 51% 30.12 in - ENE 21.9 mph - N/A   Clear
9:00 AM 57.2 °F 37.4 °F 48% 30.15 in - ENE 21.9 mph - N/A   Clear
9:30 AM 59.0 °F 37.4 °F 45% 30.15 in - NE 21.9 mph - N/A   Clear
10:00 AM 59.0 °F 37.4 °F 45% 30.12 in - NE 19.6 mph - N/A   Clear
10:30 AM 60.8 °F 37.4 °F 42% 30.12 in - NE 19.6 mph - N/A   Clear
11:00 AM 62.6 °F 35.6 °F 37% 30.12 in - NE 17.3 mph - N/A   Clear
11:30 AM 64.4 °F 33.8 °F 32% 30.09 in - NE 17.3 mph - N/A   Clear
12:00 PM 64.4 °F 35.6 °F 34% 30.06 in - NE 18.4 mph - N/A   Clear
12:30 PM 66.2 °F 33.8 °F 30% 30.04 in - NE 16.1 mph - N/A   Clear
1:00 PM 68.0 °F 30.2 °F 24% 30.04 in - NE 15.0 mph - N/A   Clear
1:30 PM 68.0 °F 30.2 °F 24% 30.04 in - NE 15.0 mph - N/A   Clear
2:00 PM 69 °F 32 °F 15% 30.02 in 6 mi NE 16.1 mph - -   Scattered Clouds
2:00 PM 69.8 °F 32.0 °F 25% 30.01 in - NE 16.1 mph - N/A   Clear
2:30 PM 69.8 °F 32.0 °F 25% 30.01 in - NE 16.1 mph - N/A   Clear
3:00 PM 69.8 °F 30.2 °F 23% 29.98 in - NE 17.3 mph - N/A   Clear
3:30 PM 69.8 °F 28.4 °F 21% 29.98 in - ENE 15.0 mph - N/A   Clear
4:00 PM 69.8 °F 26.6 °F 20% 29.95 in - ENE 16.1 mph - N/A   Clear
4:30 PM 69.8 °F 26.6 °F 20% 29.95 in - ENE 17.3 mph - N/A   Clear
5:00 PM 71.6 °F 26.6 °F 19% 29.98 in - ENE 11.5 mph - N/A   Clear
5:30 PM 71.6 °F 26.6 °F 19% 29.95 in - NE 8.1 mph - N/A   Clear
6:00 PM 69.8 °F 26.6 °F 20% 29.95 in - NE 8.1 mph - N/A   Clear
6:30 PM 68.0 °F 26.6 °F 21% 29.95 in - NE 10.4 mph - N/A   Clear
7:00 PM 64.4 °F 33.8 °F 32% 29.95 in - NNE 12.7 mph - N/A   Clear
7:30 PM 62.6 °F 37.4 °F 39% 29.95 in - NNE 12.7 mph - N/A   Clear
8:00 PM 63 °F 40 °F 32% 29.94 in 6 mi ENE 12.7 mph - -  
8:00 PM 62.6 °F 41.0 °F 45% 29.92 in - ENE 12.7 mph - N/A   Clear
8:30 PM 62.6 °F 37.4 °F 39% 29.92 in - ENE 12.7 mph - N/A   Clear
9:00 PM 60.8 °F 39.2 °F 45% 29.95 in - ENE 8.1 mph - N/A   Clear
9:30 PM 60.8 °F 39.2 °F 45% 29.95 in - ENE 8.1 mph - N/A   Clear
10:00 PM 59.0 °F 35.6 °F 42% 29.92 in - NE 6.9 mph - N/A   Clear
10:30 PM 59.0 °F 35.6 °F 42% 29.92 in - NE 6.9 mph - N/A   Clear
11:00 PM 57.2 °F 35.6 °F 44% 29.92 in - NE 4.6 mph - N/A   Clear
11:30 PM 55.4 °F 35.6 °F 47% 29.92 in - SSE 1.2 mph - N/A   Clear